This demonstration page uses our WeatherBlox Daily Observations layout. Learn more.

Left ArrowRight Arrow

Hourly Observations for July 13, 2022

Temp ( °F °C ) Dew Point ( °F °C ) Humidity (%) Winds ( mph kmh ) Pressure ( in mb ) Visibility ( mi km ) Precip ( " mm )
12:52 am 00:52 Clear 68 20 61 16.1 78 78 ESE 5 7 30.01 1016 10 16 0.00 0.00
1:52 am 01:52 Mostly Clear 68 20 63 17.2 84 84 SSE 5 7 30.01 1016 10 16 0.00 0.00
2:52 am 02:52 Mostly Clear 67 19.4 62 16.7 84 84 SE 8 13 30.01 1016 10 16 0.00 0.00
3:52 am 03:52 Mostly Clear 67 19.4 62 16.7 84 84 SSE 7 11 30.01 1016 10 16 0.00 0.00
4:52 am 04:52 Mostly Clear 66 18.9 63 17.2 90 90 SE 5 7 30.01 1016 10 16 0.00 0.00
5:52 am 05:52 Mostly Clear 66 18.9 62 16.7 87 87 SSE 6 9 30.02 1017 10 16 0.00 0.00
6:52 am 06:52 Mostly Sunny 67 19.4 63 17.2 87 87 SE 6 9 30.03 1017 10 16 0.00 0.00
7:52 am 07:52 Mostly Sunny 70 21.1 64 17.8 82 82 SSE 5 7 30.03 1017 10 16 0.00 0.00
8:52 am 08:52 Partly Cloudy 76 24.4 64 17.8 67 67 SW 5 7 30.04 1017 10 16 0.00 0.00
9:52 am 09:52 Partly Cloudy 81 27.2 64 17.8 57 57 SSW 6 9 30.04 1017 10 16 0.00 0.00
10:52 am 10:52 Partly Cloudy 84 28.9 63 17.2 49 49 WSW 8 13 30.04 1017 10 16 0.00 0.00
11:52 am 11:52 Partly Cloudy 86 30 64 17.8 48 48 VRB 5 7 30.03 1017 10 16 0.00 0.00
12:52 pm 12:52 Mostly Sunny 88 31.1 64 17.8 45 45 S 7 11 30.02 1017 10 16 0.00 0.00
1:52 pm 13:52 Sunny 90 32.2 64 17.8 42 42 WSW 8 13 30.00 1016 10 16 0.00 0.00
2:52 pm 14:52 Mostly Sunny 91 32.8 64 17.8 41 41 SW 7 11 29.98 1015 10 16 0.00 0.00
3:52 pm 15:52 Mostly Sunny 92 33.3 64 17.8 40 40 S 12 19 29.98 1015 10 16 0.00 0.00
4:52 pm 16:52 Mostly Sunny 91 32.8 64 17.8 41 41 SW 10 17 29.97 1015 10 16 0.00 0.00
5:52 pm 17:52 Mostly Sunny 91 32.8 64 17.8 41 41 S 10 17 29.96 1015 10 16 0.00 0.00
6:52 pm 18:52 Sunny 90 32.2 64 17.8 42 42 S 13 20 29.95 1014 10 16 0.00 0.00
7:52 pm 19:52 Sunny 87 30.6 67 19.4 51 51 SSE 17 28 29.96 1015 10 16 0.00 0.00
8:52 pm 20:52 Mostly Sunny 84 28.9 66 18.9 55 55 S 15 24 29.96 1015 10 16 0.00 0.00
9:52 pm 21:52 Clear 83 28.3 66 18.9 57 57 S 10 17 29.97 1015 10 16 0.00 0.00
10:52 pm 22:52 Clear 79 26.1 66 18.9 65 65 SSE 9 15 29.98 1015 10 16 0.00 0.00
11:52 pm 23:52 Clear 77 25 67 19.4 71 71 SSE 8 13 29.98 1015 10 16 0.00 0.00

Powered by AerisWeather